Time,TemperatureF,DewpointF,PressureIn,WindDirection,WindDirectionDegrees,WindSpeedMPH,WindSpeedGustMPH,Humidity,HourlyPrecipIn,Conditions,Clouds,dailyrainin,SoftwareType,DateUTC
2013-10-18 00:03:00,-999.0,-99.9,-100.00,ESE,114,4.0,5.0,-999,-99.99,,,-99.99,,2013-10-18 08:03:00,
2013-10-18 00:12:00,-999.0,-99.9,-100.00,ESE,108,2.0,3.0,-999,-99.99,,,-99.99,,2013-10-18 08:12:00,
2013-10-18 00:22:00,-999.0,-99.9,-100.00,ESE,122,5.0,6.0,-999,-99.99,,,-99.99,,2013-10-18 08:22:00,
2013-10-18 00:32:00,-999.0,-99.9,-100.00,ESE,112,6.0,6.0,-999,-99.99,,,-99.99,,2013-10-18 08:32:00,
2013-10-18 00:42:00,-999.0,-99.9,-100.00,ESE,112,7.0,7.0,-999,-99.99,,,-99.99,,2013-10-18 08:42:00,
2013-10-18 00:52:00,-999.0,-99.9,-100.00,ESE,102,7.0,-1.0,-999,-99.99,,,-99.99,,2013-10-18 08:52:00,
2013-10-18 01:02:00,-999.0,-99.9,-100.00,East,99,6.0,7.0,-999,-99.99,,,-99.99,,2013-10-18 09:02:00,
2013-10-18 01:12:00,-999.0,-99.9,-100.00,ESE,103,6.0,6.0,-999,-99.99,,,-99.99,,2013-10-18 09:12:00,
2013-10-18 01:22:00,-999.0,-99.9,-100.00,ESE,113,7.0,-1.0,-999,-99.99,,,-99.99,,2013-10-18 09:22:00,
2013-10-18 01:33:00,-999.0,-99.9,-100.00,ESE,113,7.0,8.0,-999,-99.99,,,-99.99,,2013-10-18 09:33:00,
2013-10-18 01:43:00,-999.0,-99.9,-100.00,ESE,117,7.0,7.0,-999,-99.99,,,-99.99,,2013-10-18 09:43:00,
2013-10-18 01:53:00,-999.0,-99.9,-100.00,ESE,115,5.0,-1.0,-999,-99.99,,,-99.99,,2013-10-18 09:53:00,
2013-10-18 02:03:00,-999.0,-99.9,-100.00,ESE,112,5.0,6.0,-999,-99.99,,,-99.99,,2013-10-18 10:03:00,
2013-10-18 02:12:00,-999.0,-99.9,-100.00,ESE,115,6.0,7.0,-999,-99.99,,,-99.99,,2013-10-18 10:12:00,
2013-10-18 02:23:00,-999.0,-99.9,-100.00,ESE,116,8.0,8.0,-999,-99.99,,,-99.99,,2013-10-18 10:23:00,
2013-10-18 02:33:00,-999.0,-99.9,-100.00,East,91,5.0,6.0,-999,-99.99,,,-99.99,,2013-10-18 10:33:00,
2013-10-18 02:43:00,-999.0,-99.9,-100.00,East,95,6.0,-1.0,-999,-99.99,,,-99.99,,2013-10-18 10:43:00,
2013-10-18 02:53:00,-999.0,-99.9,-100.00,East,99,6.0,6.0,-999,-99.99,,,-99.99,,2013-10-18 10:53:00,
2013-10-18 03:03:00,-999.0,-99.9,-100.00,ESE,106,6.0,6.0,-999,-99.99,,,-99.99,,2013-10-18 11:03:00,
2013-10-18 03:12:00,-999.0,-99.9,-100.00,ESE,108,8.0,9.0,-999,-99.99,,,-99.99,,2013-10-18 11:12:00,
2013-10-18 03:22:00,-999.0,-99.9,-100.00,ESE,107,8.0,-1.0,-999,-99.99,,,-99.99,,2013-10-18 11:22:00,
2013-10-18 03:33:00,-999.0,-99.9,-100.00,ESE,114,7.0,8.0,-999,-99.99,,,-99.99,,2013-10-18 11:33:00,
2013-10-18 03:42:00,-999.0,-99.9,-100.00,ESE,116,10.0,10.0,-999,-99.99,,,-99.99,,2013-10-18 11:42:00,
2013-10-18 03:52:00,-999.0,-99.9,-100.00,ESE,106,8.0,9.0,-999,-99.99,,,-99.99,,2013-10-18 11:52:00,
2013-10-18 04:02:00,-999.0,-99.9,-100.00,East,101,9.0,9.0,-999,-99.99,,,-99.99,,2013-10-18 12:02:00,
2013-10-18 04:12:00,-999.0,-99.9,-100.00,East,99,6.0,8.0,-999,-99.99,,,-99.99,,2013-10-18 12:12:00,
2013-10-18 04:22:00,-999.0,-99.9,-100.00,East,101,8.0,9.0,-999,-99.99,,,-99.99,,2013-10-18 12:22:00,
2013-10-18 04:32:00,-999.0,-99.9,-100.00,East,97,9.0,9.0,-999,-99.99,,,-99.99,,2013-10-18 12:32:00,
2013-10-18 04:42:00,-999.0,-99.9,-100.00,ESE,106,6.0,8.0,-999,-99.99,,,-99.99,,2013-10-18 12:42:00,
2013-10-18 04:52:00,-999.0,-99.9,-100.00,ESE,112,6.0,8.0,-999,-99.99,,,-99.99,,2013-10-18 12:52:00,
2013-10-18 05:02:00,-999.0,-99.9,-100.00,East,101,9.0,-1.0,-999,-99.99,,,-99.99,,2013-10-18 13:02:00,
2013-10-18 05:11:00,-999.0,-99.9,-100.00,East,101,6.0,-1.0,-999,-99.99,,,-99.99,,2013-10-18 13:11:00,
2013-10-18 05:22:00,-999.0,-99.9,-100.00,ESE,106,8.0,-1.0,-999,-99.99,,,-99.99,,2013-10-18 13:22:00,
2013-10-18 05:32:00,-999.0,-99.9,-100.00,ESE,102,8.0,10.0,-999,-99.99,,,-99.99,,2013-10-18 13:32:00,
2013-10-18 05:42:00,-999.0,-99.9,-100.00,ESE,103,10.0,10.0,-999,-99.99,,,-99.99,,2013-10-18 13:42:00,
2013-10-18 05:52:00,-999.0,-99.9,-100.00,ESE,104,10.0,10.0,-999,-99.99,,,-99.99,,2013-10-18 13:52:00,
2013-10-18 06:02:00,-999.0,-99.9,-100.00,East,95,9.0,10.0,-999,-99.99,,,-99.99,,2013-10-18 14:02:00,
2013-10-18 06:11:00,-999.0,-99.9,-100.00,ESE,108,10.0,10.0,-999,-99.99,,,-99.99,,2013-10-18 14:11:00,
2013-10-18 06:22:00,-999.0,-99.9,-100.00,ESE,103,7.0,11.0,-999,-99.99,,,-99.99,,2013-10-18 14:22:00,
2013-10-18 06:32:00,-999.0,-99.9,-100.00,East,101,8.0,-1.0,-999,-99.99,,,-99.99,,2013-10-18 14:32:00,
2013-10-18 06:42:00,-999.0,-99.9,-100.00,East,101,10.0,11.0,-999,-99.99,,,-99.99,,2013-10-18 14:42:00,
2013-10-18 06:52:00,-999.0,-99.9,-100.00,ESE,102,11.0,11.0,-999,-99.99,,,-99.99,,2013-10-18 14:52:00,
2013-10-18 07:02:00,-999.0,-99.9,-100.00,East,93,10.0,11.0,-999,-99.99,,,-99.99,,2013-10-18 15:02:00,
2013-10-18 07:12:00,-999.0,-99.9,-100.00,ESE,107,10.0,10.0,-999,-99.99,,,-99.99,,2013-10-18 15:12:00,
2013-10-18 07:22:00,-999.0,-99.9,-100.00,ESE,109,10.0,10.0,-999,-99.99,,,-99.99,,2013-10-18 15:22:00,
2013-10-18 07:33:00,-999.0,-99.9,-100.00,ESE,112,9.0,11.0,-999,-99.99,,,-99.99,,2013-10-18 15:33:00,
2013-10-18 07:43:00,-999.0,-99.9,-100.00,ESE,110,8.0,9.0,-999,-99.99,,,-99.99,,2013-10-18 15:43:00,
2013-10-18 07:54:00,-999.0,-99.9,-100.00,ESE,117,7.0,9.0,-999,-99.99,,,-99.99,,2013-10-18 15:54:00,
2013-10-18 08:04:00,-999.0,-99.9,-100.00,ESE,123,7.0,7.0,-999,-99.99,,,-99.99,,2013-10-18 16:04:00,
2013-10-18 08:13:00,-999.0,-99.9,-100.00,ESE,110,9.0,9.0,-999,-99.99,,,-99.99,,2013-10-18 16:13:00,
2013-10-18 08:24:00,-999.0,-99.9,-100.00,East,90,9.0,11.0,-999,-99.99,,,-99.99,,2013-10-18 16:24:00,
2013-10-18 08:33:00,-999.0,-99.9,-100.00,East,98,10.0,10.0,-999,-99.99,,,-99.99,,2013-10-18 16:33:00,
2013-10-18 08:42:00,-999.0,-99.9,-100.00,ESE,113,13.0,13.0,-999,-99.99,,,-99.99,,2013-10-18 16:42:00,
2013-10-18 08:53:00,-999.0,-99.9,-100.00,ESE,106,11.0,13.0,-999,-99.99,,,-99.99,,2013-10-18 16:53:00,
2013-10-18 09:03:00,-999.0,-99.9,-100.00,ESE,107,11.0,12.0,-999,-99.99,,,-99.99,,2013-10-18 17:03:00,
2013-10-18 09:12:00,-999.0,-99.9,-100.00,ESE,113,11.0,12.0,-999,-99.99,,,-99.99,,2013-10-18 17:12:00,
2013-10-18 09:22:00,-999.0,-99.9,-100.00,East,101,11.0,13.0,-999,-99.99,,,-99.99,,2013-10-18 17:22:00,
2013-10-18 09:33:00,-999.0,-99.9,-100.00,ESE,103,9.0,12.0,-999,-99.99,,,-99.99,,2013-10-18 17:33:00,
2013-10-18 09:42:00,-999.0,-99.9,-100.00,ESE,104,11.0,11.0,-999,-99.99,,,-99.99,,2013-10-18 17:42:00,
2013-10-18 09:52:00,-999.0,-99.9,-100.00,East,97,10.0,11.0,-999,-99.99,,,-99.99,,2013-10-18 17:52:00,
2013-10-18 10:02:00,-999.0,-99.9,-100.00,ESE,112,12.0,13.0,-999,-99.99,,,-99.99,,2013-10-18 18:02:00,
2013-10-18 10:12:00,-999.0,-99.9,-100.00,ESE,111,10.0,13.0,-999,-99.99,,,-99.99,,2013-10-18 18:12:00,
2013-10-18 10:22:00,-999.0,-99.9,-100.00,ESE,106,12.0,12.0,-999,-99.99,,,-99.99,,2013-10-18 18:22:00,
2013-10-18 10:32:00,-999.0,-99.9,-100.00,ESE,108,9.0,11.0,-999,-99.99,,,-99.99,,2013-10-18 18:32:00,
2013-10-18 10:42:00,-999.0,-99.9,-100.00,ESE,105,8.0,8.0,-999,-99.99,,,-99.99,,2013-10-18 18:42:00,
2013-10-18 10:52:00,-999.0,-99.9,-100.00,ESE,105,7.0,10.0,-999,-99.99,,,-99.99,,2013-10-18 18:52:00,
2013-10-18 11:01:00,-999.0,-99.9,-100.00,ESE,114,9.0,9.0,-999,-99.99,,,-99.99,,2013-10-18 19:01:00,
2013-10-18 11:12:00,-999.0,-99.9,-100.00,ESE,102,7.0,8.0,-999,-99.99,,,-99.99,,2013-10-18 19:12:00,
2013-10-18 11:22:00,-999.0,-99.9,-100.00,ESE,102,6.0,7.0,-999,-99.99,,,-99.99,,2013-10-18 19:22:00,
2013-10-18 11:32:00,-999.0,-99.9,-100.00,East,97,7.0,-1.0,-999,-99.99,,,-99.99,,2013-10-18 19:32:00,
2013-10-18 11:42:00,-999.0,-99.9,-100.00,ESE,107,10.0,10.0,-999,-99.99,,,-99.99,,2013-10-18 19:42:00,
2013-10-18 11:52:00,-999.0,-99.9,-100.00,ESE,105,9.0,11.0,-999,-99.99,,,-99.99,,2013-10-18 19:52:00,
2013-10-18 12:02:00,-999.0,-99.9,-100.00,East,97,10.0,10.0,-999,-99.99,,,-99.99,,2013-10-18 20:02:00,
2013-10-18 12:11:00,-999.0,-99.9,-100.00,ESE,105,12.0,13.0,-999,-99.99,,,-99.99,,2013-10-18 20:11:00,
2013-10-18 12:22:00,-999.0,-99.9,-100.00,ESE,103,10.0,-1.0,-999,-99.99,,,-99.99,,2013-10-18 20:22:00,
2013-10-18 12:32:00,-999.0,-99.9,-100.00,ESE,117,13.0,13.0,-999,-99.99,,,-99.99,,2013-10-18 20:32:00,
2013-10-18 12:42:00,-999.0,-99.9,-100.00,SE,124,9.0,13.0,-999,-99.99,,,-99.99,,2013-10-18 20:42:00,
2013-10-18 12:52:00,-999.0,-99.9,-100.00,East,99,8.0,12.0,-999,-99.99,,,-99.99,,2013-10-18 20:52:00,
2013-10-18 13:02:00,-999.0,-99.9,-100.00,East,99,9.0,9.0,-999,-99.99,,,-99.99,,2013-10-18 21:02:00,
2013-10-18 13:12:00,-999.0,-99.9,-100.00,East,101,11.0,13.0,-999,-99.99,,,-99.99,,2013-10-18 21:12:00,
2013-10-18 13:22:00,-999.0,-99.9,-100.00,East,101,7.0,9.0,-999,-99.99,,,-99.99,,2013-10-18 21:22:00,
2013-10-18 13:34:00,-999.0,-99.9,-100.00,ESE,113,10.0,12.0,-999,-99.99,,,-99.99,,2013-10-18 21:34:00,
2013-10-18 13:45:00,-999.0,-99.9,-100.00,ESE,106,13.0,13.0,-999,-99.99,,,-99.99,,2013-10-18 21:45:00,
2013-10-18 13:54:00,-999.0,-99.9,-100.00,ESE,111,15.0,15.0,-999,-99.99,,,-99.99,,2013-10-18 21:54:00,
2013-10-18 14:04:00,-999.0,-99.9,-100.00,East,88,10.0,12.0,-999,-99.99,,,-99.99,,2013-10-18 22:04:00,
2013-10-18 14:13:00,-999.0,-99.9,-100.00,ESE,105,11.0,12.0,-999,-99.99,,,-99.99,,2013-10-18 22:13:00,
2013-10-18 14:24:00,-999.0,-99.9,-100.00,ESE,105,13.0,13.0,-999,-99.99,,,-99.99,,2013-10-18 22:24:00,
2013-10-18 14:33:00,-999.0,-99.9,-100.00,ESE,105,11.0,11.0,-999,-99.99,,,-99.99,,2013-10-18 22:33:00,
2013-10-18 14:43:00,-999.0,-99.9,-100.00,East,97,12.0,13.0,-999,-99.99,,,-99.99,,2013-10-18 22:43:00,
2013-10-18 14:54:00,-999.0,-99.9,-100.00,ESE,104,14.0,15.0,-999,-99.99,,,-99.99,,2013-10-18 22:54:00,
2013-10-18 15:03:00,-999.0,-99.9,-100.00,ESE,108,14.0,14.0,-999,-99.99,,,-99.99,,2013-10-18 23:03:00,
2013-10-18 15:13:00,-999.0,-99.9,-100.00,ESE,106,13.0,13.0,-999,-99.99,,,-99.99,,2013-10-18 23:13:00,
2013-10-18 15:23:00,-999.0,-99.9,-100.00,East,99,11.0,12.0,-999,-99.99,,,-99.99,,2013-10-18 23:23:00,
2013-10-18 15:34:00,-999.0,-99.9,-100.00,ESE,109,12.0,13.0,-999,-99.99,,,-99.99,,2013-10-18 23:34:00,
2013-10-18 15:43:00,-999.0,-99.9,-100.00,ESE,107,11.0,13.0,-999,-99.99,,,-99.99,,2013-10-18 23:43:00,
2013-10-18 15:53:00,-999.0,-99.9,-100.00,ESE,114,12.0,15.0,-999,-99.99,,,-99.99,,2013-10-18 23:53:00,
2013-10-18 16:02:00,-999.0,-99.9,-100.00,ESE,105,11.0,13.0,-999,-99.99,,,-99.99,,2013-10-19 00:02:00,
2013-10-18 16:12:00,-999.0,-99.9,-100.00,ESE,102,10.0,14.0,-999,-99.99,,,-99.99,,2013-10-19 00:12:00,
2013-10-18 16:22:00,-999.0,-99.9,-100.00,ESE,108,14.0,14.0,-999,-99.99,,,-99.99,,2013-10-19 00:22:00,
2013-10-18 16:32:00,-999.0,-99.9,-100.00,ESE,110,14.0,16.0,-999,-99.99,,,-99.99,,2013-10-19 00:32:00,
2013-10-18 16:42:00,-999.0,-99.9,-100.00,ESE,110,15.0,16.0,-999,-99.99,,,-99.99,,2013-10-19 00:42:00,
2013-10-18 16:52:00,-999.0,-99.9,-100.00,ESE,116,16.0,16.0,-999,-99.99,,,-99.99,,2013-10-19 00:52:00,
2013-10-18 17:02:00,-999.0,-99.9,-100.00,ESE,113,12.0,13.0,-999,-99.99,,,-99.99,,2013-10-19 01:02:00,
2013-10-18 17:12:00,-999.0,-99.9,-100.00,ESE,111,14.0,14.0,-999,-99.99,,,-99.99,,2013-10-19 01:12:00,
2013-10-18 17:22:00,-999.0,-99.9,-100.00,ESE,102,14.0,15.0,-999,-99.99,,,-99.99,,2013-10-19 01:22:00,
2013-10-18 17:32:00,-999.0,-99.9,-100.00,ESE,106,14.0,17.0,-999,-99.99,,,-99.99,,2013-10-19 01:32:00,
2013-10-18 17:42:00,-999.0,-99.9,-100.00,ESE,105,15.0,15.0,-999,-99.99,,,-99.99,,2013-10-19 01:42:00,
2013-10-18 17:53:00,-999.0,-99.9,-100.00,ESE,107,13.0,17.0,-999,-99.99,,,-99.99,,2013-10-19 01:53:00,
2013-10-18 18:02:00,-999.0,-99.9,-100.00,ESE,116,15.0,15.0,-999,-99.99,,,-99.99,,2013-10-19 02:02:00,
2013-10-18 18:12:00,-999.0,-99.9,-100.00,ESE,108,14.0,16.0,-999,-99.99,,,-99.99,,2013-10-19 02:12:00,
2013-10-18 18:22:00,-999.0,-99.9,-100.00,ESE,106,14.0,16.0,-999,-99.99,,,-99.99,,2013-10-19 02:22:00,
2013-10-18 18:32:00,-999.0,-99.9,-100.00,ESE,113,16.0,16.0,-999,-99.99,,,-99.99,,2013-10-19 02:32:00,
2013-10-18 18:42:00,-999.0,-99.9,-100.00,ESE,118,15.0,16.0,-999,-99.99,,,-99.99,,2013-10-19 02:42:00,
2013-10-18 18:52:00,-999.0,-99.9,-100.00,ESE,118,15.0,18.0,-999,-99.99,,,-99.99,,2013-10-19 02:52:00,
2013-10-18 19:03:00,-999.0,-99.9,-100.00,SE,126,17.0,17.0,-999,-99.99,,,-99.99,,2013-10-19 03:03:00,
2013-10-18 19:12:00,-999.0,-99.9,-100.00,ESE,116,17.0,23.0,-999,-99.99,,,-99.99,,2013-10-19 03:12:00,
2013-10-18 19:23:00,-999.0,-99.9,-100.00,ESE,118,16.0,16.0,-999,-99.99,,,-99.99,,2013-10-19 03:23:00,
2013-10-18 19:34:00,-999.0,-99.9,-100.00,ESE,118,17.0,17.0,-999,-99.99,,,-99.99,,2013-10-19 03:34:00,
2013-10-18 19:45:00,-999.0,-99.9,-100.00,ESE,118,18.0,18.0,-999,-99.99,,,-99.99,,2013-10-19 03:45:00,
2013-10-18 19:55:00,-999.0,-99.9,-100.00,ESE,118,17.0,18.0,-999,-99.99,,,-99.99,,2013-10-19 03:55:00,
2013-10-18 20:05:00,-999.0,-99.9,-100.00,ESE,115,17.0,18.0,-999,-99.99,,,-99.99,,2013-10-19 04:05:00,
2013-10-18 20:14:00,-999.0,-99.9,-100.00,ESE,108,14.0,16.0,-999,-99.99,,,-99.99,,2013-10-19 04:14:00,
2013-10-18 20:24:00,-999.0,-99.9,-100.00,ESE,106,12.0,15.0,-999,-99.99,,,-99.99,,2013-10-19 04:24:00,
2013-10-18 20:34:00,-999.0,-99.9,-100.00,ESE,107,13.0,13.0,-999,-99.99,,,-99.99,,2013-10-19 04:34:00,
2013-10-18 20:44:00,-999.0,-99.9,-100.00,ESE,114,15.0,15.0,-999,-99.99,,,-99.99,,2013-10-19 04:44:00,
2013-10-18 20:54:00,-999.0,-99.9,-100.00,ESE,123,13.0,14.0,-999,-99.99,,,-99.99,,2013-10-19 04:54:00,
2013-10-18 21:04:00,-999.0,-99.9,-100.00,ESE,116,14.0,-1.0,-999,-99.99,,,-99.99,,2013-10-19 05:04:00,
2013-10-18 21:13:00,-999.0,-99.9,-100.00,ESE,104,11.0,-1.0,-999,-99.99,,,-99.99,,2013-10-19 05:13:00,
2013-10-18 21:23:00,-999.0,-99.9,-100.00,ESE,106,15.0,15.0,-999,-99.99,,,-99.99,,2013-10-19 05:23:00,
2013-10-18 21:34:00,-999.0,-99.9,-100.00,ESE,109,14.0,17.0,-999,-99.99,,,-99.99,,2013-10-19 05:34:00,
2013-10-18 21:43:00,-999.0,-99.9,-100.00,ESE,110,13.0,13.0,-999,-99.99,,,-99.99,,2013-10-19 05:43:00,
2013-10-18 21:52:00,-999.0,-99.9,-100.00,ESE,118,14.0,16.0,-999,-99.99,,,-99.99,,2013-10-19 05:52:00,
2013-10-18 22:02:00,-999.0,-99.9,-100.00,ESE,115,14.0,15.0,-999,-99.99,,,-99.99,,2013-10-19 06:02:00,
2013-10-18 22:12:00,-999.0,-99.9,-100.00,ESE,109,10.0,14.0,-999,-99.99,,,-99.99,,2013-10-19 06:12:00,
2013-10-18 22:22:00,-999.0,-99.9,-100.00,ESE,115,15.0,15.0,-999,-99.99,,,-99.99,,2013-10-19 06:22:00,
2013-10-18 22:32:00,-999.0,-99.9,-100.00,ESE,122,15.0,15.0,-999,-99.99,,,-99.99,,2013-10-19 06:32:00,
2013-10-18 22:42:00,-999.0,-99.9,-100.00,ESE,121,16.0,16.0,-999,-99.99,,,-99.99,,2013-10-19 06:42:00,
2013-10-18 22:52:00,-999.0,-99.9,-100.00,ESE,117,15.0,15.0,-999,-99.99,,,-99.99,,2013-10-19 06:52:00,
2013-10-18 23:02:00,-999.0,-99.9,-100.00,ESE,112,13.0,15.0,-999,-99.99,,,-99.99,,2013-10-19 07:02:00,
2013-10-18 23:11:00,-999.0,-99.9,-100.00,ESE,109,12.0,15.0,-999,-99.99,,,-99.99,,2013-10-19 07:11:00,
2013-10-18 23:22:00,-999.0,-99.9,-100.00,ESE,110,12.0,15.0,-999,-99.99,,,-99.99,,2013-10-19 07:22:00,
2013-10-18 23:32:00,-999.0,-99.9,-100.00,ESE,102,12.0,14.0,-999,-99.99,,,-99.99,,2013-10-19 07:32:00,
2013-10-18 23:42:00,-999.0,-99.9,-100.00,ESE,111,15.0,15.0,-999,-99.99,,,-99.99,,2013-10-19 07:42:00,
2013-10-18 23:53:00,-999.0,-99.9,-100.00,ESE,112,14.0,17.0,-999,-99.99,,,-99.99,,2013-10-19 07:53:00,